Time,TemperatureF,DewpointF,PressureIn,WindDirection,WindDirectionDegrees,WindSpeedMPH,WindSpeedGustMPH,Humidity,HourlyPrecipIn,Conditions,Clouds,dailyrainin,SoftwareType,DateUTC
2013-02-12 00:01:00,20.0,18.0,-100.00,North,349,3.0,7.0,90,0.00,,,0.00,,2013-02-12 07:01:00,
2013-02-12 00:11:00,20.0,18.0,-100.00,North,349,3.0,7.0,90,0.00,,,0.00,,2013-02-12 07:11:00,
2013-02-12 00:21:00,20.0,18.0,-100.00,North,349,3.0,7.0,90,0.00,,,0.00,,2013-02-12 07:21:00,
2013-02-12 00:31:00,20.0,18.0,-100.00,North,349,3.0,7.0,90,0.00,,,0.00,,2013-02-12 07:31:00,
2013-02-12 00:40:00,21.0,18.0,-100.00,NNW,342,7.0,15.0,89,0.00,,,0.00,,2013-02-12 07:40:00,
2013-02-12 01:01:00,21.0,18.0,-100.00,NNW,342,7.0,15.0,89,0.00,,,0.00,,2013-02-12 08:01:00,
2013-02-12 01:11:00,21.0,18.0,-100.00,NNW,342,7.0,15.0,89,0.00,,,0.00,,2013-02-12 08:11:00,
2013-02-12 01:21:00,21.0,18.0,-100.00,NNW,342,7.0,15.0,89,0.00,,,0.00,,2013-02-12 08:21:00,
2013-02-12 01:32:00,21.0,18.0,-100.00,NNW,342,7.0,15.0,89,0.00,,,0.00,,2013-02-12 08:32:00,
2013-02-12 01:40:00,21.0,16.0,-100.00,NNW,348,4.0,15.0,82,0.00,,,0.00,,2013-02-12 08:40:00,
2013-02-12 02:02:00,21.0,16.0,-100.00,NNW,348,4.0,15.0,82,0.00,,,0.00,,2013-02-12 09:02:00,
2013-02-12 02:11:00,21.0,16.0,-100.00,NNW,348,4.0,15.0,82,0.00,,,0.00,,2013-02-12 09:11:00,
2013-02-12 02:21:00,21.0,16.0,-100.00,NNW,348,4.0,15.0,82,0.00,,,0.00,,2013-02-12 09:21:00,
2013-02-12 02:32:00,21.0,16.0,-100.00,NNW,348,4.0,15.0,82,0.00,,,0.00,,2013-02-12 09:32:00,
2013-02-12 02:40:00,17.0,12.0,-100.00,NNW,337,3.0,7.0,80,0.00,,,0.00,,2013-02-12 09:40:00,
2013-02-12 03:01:00,17.0,12.0,-100.00,NNW,337,3.0,7.0,80,0.00,,,0.00,,2013-02-12 10:01:00,
2013-02-12 03:11:00,17.0,12.0,-100.00,NNW,337,3.0,7.0,80,0.00,,,0.00,,2013-02-12 10:11:00,
2013-02-12 03:21:00,17.0,12.0,-100.00,NNW,337,3.0,7.0,80,0.00,,,0.00,,2013-02-12 10:21:00,
2013-02-12 03:32:00,17.0,12.0,-100.00,NNW,337,3.0,7.0,80,0.00,,,0.00,,2013-02-12 10:32:00,
2013-02-12 03:40:00,18.0,10.0,-100.00,NW,316,5.0,9.0,71,0.00,,,0.00,,2013-02-12 10:40:00,
2013-02-12 04:01:00,18.0,10.0,-100.00,NW,316,5.0,9.0,71,0.00,,,0.00,,2013-02-12 11:01:00,
2013-02-12 04:11:00,18.0,10.0,-100.00,NW,316,5.0,9.0,71,0.00,,,0.00,,2013-02-12 11:11:00,
2013-02-12 04:22:00,18.0,10.0,-100.00,NW,316,5.0,9.0,71,0.00,,,0.00,,2013-02-12 11:22:00,
2013-02-12 04:32:00,18.0,10.0,-100.00,NW,316,5.0,9.0,71,0.00,,,0.00,,2013-02-12 11:32:00,
2013-02-12 04:40:00,19.0,10.0,-100.00,NNW,328,4.0,8.0,68,0.00,,,0.00,,2013-02-12 11:40:00,
2013-02-12 05:01:00,19.0,10.0,-100.00,NNW,328,4.0,8.0,68,0.00,,,0.00,,2013-02-12 12:01:00,
2013-02-12 05:11:00,19.0,10.0,-100.00,NNW,328,4.0,8.0,68,0.00,,,0.00,,2013-02-12 12:11:00,
2013-02-12 05:21:00,19.0,10.0,-100.00,NNW,328,4.0,8.0,68,0.00,,,0.00,,2013-02-12 12:21:00,
2013-02-12 05:32:00,19.0,10.0,-100.00,NNW,328,4.0,8.0,68,0.00,,,0.00,,2013-02-12 12:32:00,
2013-02-12 05:40:00,14.0,9.0,-100.00,NW,316,2.0,6.0,79,0.00,,,0.00,,2013-02-12 12:40:00,
2013-02-12 06:01:00,14.0,9.0,-100.00,NW,316,2.0,6.0,79,0.00,,,0.00,,2013-02-12 13:01:00,
2013-02-12 06:11:00,14.0,9.0,-100.00,NW,316,2.0,6.0,79,0.00,,,0.00,,2013-02-12 13:11:00,
2013-02-12 06:22:00,14.0,9.0,-100.00,NW,316,2.0,6.0,79,0.00,,,0.00,,2013-02-12 13:22:00,
2013-02-12 06:32:00,14.0,9.0,-100.00,NW,316,2.0,6.0,79,0.00,,,0.00,,2013-02-12 13:32:00,
2013-02-12 06:40:00,14.0,8.0,-100.00,NNW,336,3.0,5.0,77,0.00,,,0.00,,2013-02-12 13:40:00,
2013-02-12 07:01:00,14.0,8.0,-100.00,NNW,336,3.0,5.0,77,0.00,,,0.00,,2013-02-12 14:01:00,
2013-02-12 07:12:00,14.0,8.0,-100.00,NNW,336,3.0,5.0,77,0.00,,,0.00,,2013-02-12 14:12:00,
2013-02-12 07:21:00,14.0,8.0,-100.00,NNW,336,3.0,5.0,77,0.00,,,0.00,,2013-02-12 14:21:00,
2013-02-12 07:32:00,14.0,8.0,-100.00,NNW,336,3.0,5.0,77,0.00,,,0.00,,2013-02-12 14:32:00,
2013-02-12 07:40:00,16.0,10.0,-100.00,North,352,2.0,4.0,77,0.00,,,0.00,,2013-02-12 14:40:00,
2013-02-12 08:02:00,16.0,10.0,-100.00,North,352,2.0,4.0,77,0.00,,,0.00,,2013-02-12 15:02:00,
2013-02-12 08:11:00,16.0,10.0,-100.00,North,352,2.0,4.0,77,0.00,,,0.00,,2013-02-12 15:11:00,
2013-02-12 08:21:00,16.0,10.0,-100.00,North,352,2.0,4.0,77,0.00,,,0.00,,2013-02-12 15:21:00,
2013-02-12 08:32:00,16.0,10.0,-100.00,North,352,2.0,4.0,77,0.00,,,0.00,,2013-02-12 15:32:00,
2013-02-12 09:01:00,22.0,13.0,-100.00,ESE,123,3.0,6.0,68,0.01,,,0.01,,2013-02-12 16:01:00,
2013-02-12 09:11:00,22.0,13.0,-100.00,ESE,123,3.0,6.0,68,0.01,,,0.01,,2013-02-12 16:11:00,
2013-02-12 09:22:00,22.0,13.0,-100.00,ESE,123,3.0,6.0,68,0.01,,,0.01,,2013-02-12 16:22:00,
2013-02-12 09:32:00,22.0,13.0,-100.00,ESE,123,3.0,6.0,68,0.01,,,0.01,,2013-02-12 16:32:00,
2013-02-12 09:40:00,24.0,13.0,-100.00,North,352,6.0,11.0,63,0.01,,,0.02,,2013-02-12 16:40:00,
2013-02-12 10:01:00,24.0,13.0,-100.00,North,352,6.0,11.0,63,0.01,,,0.02,,2013-02-12 17:01:00,
2013-02-12 10:12:00,24.0,13.0,-100.00,North,352,6.0,11.0,63,0.01,,,0.02,,2013-02-12 17:12:00,
2013-02-12 10:21:00,24.0,13.0,-100.00,North,352,6.0,11.0,63,0.01,,,0.02,,2013-02-12 17:21:00,
2013-02-12 10:32:00,24.0,13.0,-100.00,North,352,6.0,11.0,63,0.01,,,0.02,,2013-02-12 17:32:00,
2013-02-12 10:40:00,27.0,15.0,-100.00,NNE,13,5.0,11.0,60,0.00,,,-99.99,,2013-02-12 17:40:00,
2013-02-12 11:01:00,27.0,15.0,-100.00,NNE,13,5.0,11.0,60,0.00,,,-99.99,,2013-02-12 18:01:00,
2013-02-12 11:11:00,27.0,15.0,-100.00,NNE,13,5.0,11.0,60,0.00,,,-99.99,,2013-02-12 18:11:00,
2013-02-12 11:23:00,27.0,15.0,-100.00,NNE,13,5.0,11.0,60,0.00,,,-99.99,,2013-02-12 18:23:00,
2013-02-12 11:32:00,27.0,15.0,-100.00,NNE,13,5.0,11.0,60,0.00,,,-99.99,,2013-02-12 18:32:00,
2013-02-12 11:40:00,31.0,15.0,-100.00,North,5,6.0,14.0,51,0.00,,,0.02,,2013-02-12 18:40:00,
2013-02-12 12:02:00,31.0,15.0,-100.00,North,5,6.0,14.0,51,0.00,,,0.02,,2013-02-12 19:02:00,
2013-02-12 12:11:00,31.0,15.0,-100.00,North,5,6.0,14.0,51,0.00,,,0.02,,2013-02-12 19:11:00,
2013-02-12 12:21:00,31.0,15.0,-100.00,North,5,6.0,14.0,51,0.00,,,0.02,,2013-02-12 19:21:00,
2013-02-12 12:31:00,31.0,15.0,-100.00,North,5,6.0,14.0,51,0.00,,,0.02,,2013-02-12 19:31:00,
2013-02-12 12:40:00,33.0,9.0,-100.00,North,360,5.0,13.0,36,0.00,,,0.02,,2013-02-12 19:40:00,
2013-02-12 13:01:00,33.0,9.0,-100.00,North,360,5.0,13.0,36,0.00,,,0.02,,2013-02-12 20:01:00,
2013-02-12 13:11:00,33.0,9.0,-100.00,North,360,5.0,13.0,36,0.00,,,0.02,,2013-02-12 20:11:00,
2013-02-12 13:21:00,33.0,9.0,-100.00,North,360,5.0,13.0,36,0.00,,,0.02,,2013-02-12 20:21:00,
2013-02-12 13:32:00,33.0,9.0,-100.00,North,360,5.0,13.0,36,0.00,,,0.02,,2013-02-12 20:32:00,
2013-02-12 13:40:00,37.0,3.0,-100.00,NNW,334,5.0,13.0,23,0.00,,,0.02,,2013-02-12 20:40:00,
2013-02-12 14:01:00,37.0,3.0,-100.00,NNW,334,5.0,13.0,23,0.00,,,0.02,,2013-02-12 21:01:00,
2013-02-12 14:11:00,37.0,3.0,-100.00,NNW,334,5.0,13.0,23,0.00,,,0.02,,2013-02-12 21:11:00,
2013-02-12 14:21:00,37.0,3.0,-100.00,NNW,334,5.0,13.0,23,0.00,,,0.02,,2013-02-12 21:21:00,
2013-02-12 14:31:00,37.0,3.0,-100.00,NNW,334,5.0,13.0,23,0.00,,,0.02,,2013-02-12 21:31:00,
2013-02-12 14:40:00,36.0,4.0,-100.00,NNW,335,8.0,15.0,26,0.00,,,0.02,,2013-02-12 21:40:00,
2013-02-12 15:01:00,36.0,4.0,-100.00,NNW,335,8.0,15.0,26,0.00,,,0.02,,2013-02-12 22:01:00,
2013-02-12 15:12:00,36.0,4.0,-100.00,NNW,335,8.0,15.0,26,0.00,,,0.02,,2013-02-12 22:12:00,
2013-02-12 15:21:00,36.0,4.0,-100.00,NNW,335,8.0,15.0,26,0.00,,,0.02,,2013-02-12 22:21:00,
2013-02-12 15:32:00,36.0,4.0,-100.00,NNW,335,8.0,15.0,26,0.00,,,0.02,,2013-02-12 22:32:00,
2013-02-12 15:40:00,36.0,4.0,-100.00,NNW,337,7.0,16.0,26,0.00,,,0.02,,2013-02-12 22:40:00,
2013-02-12 16:01:00,36.0,4.0,-100.00,NNW,337,7.0,16.0,26,0.00,,,0.02,,2013-02-12 23:01:00,
2013-02-12 16:11:00,36.0,4.0,-100.00,NNW,337,7.0,16.0,26,0.00,,,0.02,,2013-02-12 23:11:00,
2013-02-12 16:21:00,36.0,4.0,-100.00,NNW,337,7.0,16.0,26,0.00,,,0.02,,2013-02-12 23:21:00,
2013-02-12 16:32:00,36.0,4.0,-100.00,NNW,337,7.0,16.0,26,0.00,,,0.02,,2013-02-12 23:32:00,
2013-02-12 16:40:00,34.0,7.0,-100.00,NW,305,7.0,15.0,31,0.00,,,0.02,,2013-02-12 23:40:00,
2013-02-12 17:02:00,34.0,7.0,-100.00,NW,305,7.0,15.0,31,0.00,,,0.02,,2013-02-13 00:02:00,
2013-02-12 17:11:00,34.0,7.0,-100.00,NW,305,7.0,15.0,31,0.00,,,0.02,,2013-02-13 00:11:00,
2013-02-12 17:21:00,34.0,7.0,-100.00,NW,305,7.0,15.0,31,0.00,,,0.02,,2013-02-13 00:21:00,
2013-02-12 17:32:00,34.0,7.0,-100.00,NW,305,7.0,15.0,31,0.00,,,0.02,,2013-02-13 00:32:00,
2013-02-12 17:40:00,29.0,2.0,-100.00,NW,310,6.0,14.0,31,0.00,,,0.02,,2013-02-13 00:40:00,
2013-02-12 18:40:00,27.0,2.0,-100.00,NW,305,4.0,13.0,33,0.00,,,0.02,,2013-02-13 01:40:00,
2013-02-12 19:11:00,27.0,2.0,-100.00,NW,305,4.0,13.0,33,0.00,,,0.02,,2013-02-13 02:11:00,
2013-02-12 19:22:00,27.0,2.0,-100.00,NW,305,4.0,13.0,33,0.00,,,0.02,,2013-02-13 02:22:00,
2013-02-12 19:31:00,27.0,2.0,-100.00,NW,305,4.0,13.0,33,0.00,,,0.02,,2013-02-13 02:31:00,
2013-02-12 19:40:00,27.0,4.0,-100.00,WNW,303,6.0,12.0,37,0.00,,,0.02,,2013-02-13 02:40:00,
2013-02-12 20:01:00,27.0,4.0,-100.00,WNW,303,6.0,12.0,37,0.00,,,0.02,,2013-02-13 03:01:00,
2013-02-12 20:11:00,27.0,4.0,-100.00,WNW,303,6.0,12.0,37,0.00,,,0.02,,2013-02-13 03:11:00,
2013-02-12 20:21:00,27.0,4.0,-100.00,WNW,303,6.0,12.0,37,0.00,,,0.02,,2013-02-13 03:21:00,
2013-02-12 20:32:00,27.0,4.0,-100.00,WNW,303,6.0,12.0,37,0.00,,,0.02,,2013-02-13 03:32:00,
2013-02-12 20:40:00,25.0,5.0,-100.00,NW,326,4.0,16.0,42,0.00,,,0.02,,2013-02-13 03:40:00,
2013-02-12 21:01:00,25.0,5.0,-100.00,NW,326,4.0,16.0,42,0.00,,,0.02,,2013-02-13 04:01:00,
2013-02-12 21:11:00,25.0,5.0,-100.00,NW,326,4.0,16.0,42,0.00,,,0.02,,2013-02-13 04:11:00,
2013-02-12 21:21:00,25.0,5.0,-100.00,NW,326,4.0,16.0,42,0.00,,,0.02,,2013-02-13 04:21:00,
2013-02-12 21:32:00,25.0,5.0,-100.00,NW,326,4.0,16.0,42,0.00,,,0.02,,2013-02-13 04:32:00,
2013-02-12 21:40:00,24.0,6.0,-100.00,NNW,338,3.0,7.0,45,0.00,,,0.02,,2013-02-13 04:40:00,
2013-02-12 22:01:00,24.0,6.0,-100.00,NNW,338,3.0,7.0,45,0.00,,,0.02,,2013-02-13 05:01:00,
2013-02-12 22:11:00,24.0,6.0,-100.00,NNW,338,3.0,7.0,45,0.00,,,0.02,,2013-02-13 05:11:00,
2013-02-12 22:22:00,24.0,6.0,-100.00,NNW,338,3.0,7.0,45,0.00,,,0.02,,2013-02-13 05:22:00,
2013-02-12 22:31:00,24.0,6.0,-100.00,NNW,338,3.0,7.0,45,0.00,,,0.02,,2013-02-13 05:31:00,
2013-02-12 22:40:00,23.0,3.0,-100.00,SW,227,2.0,7.0,42,0.00,,,0.02,,2013-02-13 05:40:00,
2013-02-12 23:02:00,23.0,3.0,-100.00,SW,227,2.0,7.0,42,0.00,,,0.02,,2013-02-13 06:02:00,
2013-02-12 23:11:00,23.0,3.0,-100.00,SW,227,2.0,7.0,42,0.00,,,0.02,,2013-02-13 06:11:00,
2013-02-12 23:21:00,23.0,3.0,-100.00,SW,227,2.0,7.0,42,0.00,,,0.02,,2013-02-13 06:21:00,
2013-02-12 23:32:00,23.0,3.0,-100.00,SW,227,2.0,7.0,42,0.00,,,0.02,,2013-02-13 06:32:00,
2013-02-12 23:40:00,18.0,3.0,-100.00,WNW,290,1.0,3.0,50,0.00,,,0.02,,2013-02-13 06:40:00,